Location: Claflin County Park
(44.8478°N, 87.5507°W)
Time: 07:51:00
(UTC+00:00)

USA 234 - Pass Details

Date: 21 March 2026
Orbit: 1102 x 1106 km, 123.0° (Epoch: 4 January)

Event Time Altitude Azimuth Distance (km) Brightness Sun altitude
Exits shadow 04:39:51 34° 313° (NW) 1,735 4.5 -41.7°
Drops below altitude 10° 04:43:16 10° 310° (NW) 2,969 6.1 -42.0°
Sets 04:45:46 0° 310° (NW) 3,929 6.9 -42.2°
